Showing default

OSCAR 23 (KITSAT 1), 22077

Orbit data source: Space-Track

OSCAR 23 (KITSAT 1), 22077 is a payload satellite owned by KAIST (KR) in LEO that was launched on Mon, 10 Aug 1992 UTC via an ARIANE 42P launch vehicle from the French Guiana (FRGUI). Payload-class satellites include a variety of spacecraft equipped with specific instruments for various scientific and technological missions. These include communications satellites like Starlink; space stations such as the ISS; scientific satellites like the Hubble; Earth observation satellites from companies like Planet Labs, Umbra, and HawkEye 360; GPS; miniature CubeSats for education and research; and military/defense satellites.

Loading next visibility...
Identifier
22077, 1992-052B
Orbit
LEO
Country
Flag of UnknownUnknown / SKOR
Related business
Manufacturer
SSTL
Mission
Non-operational Civil Communications
Bus & Motor
UOSAT, Unknown motor
Mass
48 kg wet, 48 kg dry
Launch date (UTC)
1992-08-10 (33 years ago)
Launch vehicle
ARIANE 42P
Launch site
French Guiana (FRGUI)
Object type
Payload
Rocket body
Debris
Shape & HBR
Hex Poly, 0.3 m
Radar Cross Section
0.353 m², Medium (>0.1 m² and < 1m²)

Expand to show TLE details & history
Last TLE update: 15 hours ago

TLE from 15 hours ago
0 OSCAR 23 (KITSAT 1)
1 22077U 92052B   25306.49735456 -.00000053  00000-0  35335-4 0  9997
2 22077  66.0871  36.0170 0006396 336.6346 113.3090 12.86603664560527
Epoch: 2025-11-02T11:56Z
TLE epoch observation values (Epoch: 2025-11-02T11:56:11.433Z)
Latitude
66.1931°
Longitude
-95.01609°
Altitude
1,327.556 km
Speed
7.199 km/s
True Right ascension
08h 24m 10s
True Declination
66° 04' 31"
Sunlit
Object was in daylight at epoch
Visualization orbit readout
Latitude
Unknown
Longitude
Unknown
Altitude
Unknown
Speed
Unknown
Apparent Right ascension
Unknown
Apparent Declination
Unknown
Sunlit
N/A
Visualization observer readout
Local Sidereal Time
22:28:30
Azimuth
Unknown
Elevation
Unknown
Doppler factor
Unknown
Orbital elements
Apogee altitude
1,318.506 km
Perigee altitude
1,308.667 km
Semi-major axis
7,691.723 km
Eccentricity
0.00064
Inclination
66.0871°
RAAN
36.017°
Arg. of periapsis
336.6346°
True anomaly
113.37629°
Mean anomaly
113.309°
Eccentric anomaly
113.34265°
Mean motion
3.21742 °/min
Orbital period
111.89 mins
BSTAR
0.000035335
Loading maneuver chart data...
Computing Atmospheric mass density...
Loading historical data...
Loading historical data...
Loading historical data...
Loading historical data...
Loading historical data...
Loading historical data...
Loading historical data...

Documentation

Showing up to 5 results
|